Regional Weather Roundup
Issued by NWS

Home | Current Version | Previous Version | Text Only | Print | Product List | Glossary Off
Versions: 1 2 3 4 5 6 7 8 9 10 11 12 13 14 15 16 17 18 19 20 21 22 23 24 25 26 27 28 29 30 31 32 33 34 35 36 37 38 39 40 41 42 43 44 45 46 47 48 49 50

096
ASUS43 KIND 291159
RWRIN

WEATHER ROUNDUP FOR INDIANA
NATIONAL WEATHER SERVICE INDIANAPOLIS IN
800 AM EDT SUN MAY 29 2016

NOTE: "FAIR" INDICATES FEW OR NO CLOUDS BELOW 12,000 FEET WITH NO
SIGNIFICANT WEATHER AND/OR OBSTRUCTIONS TO VISIBILITY.

* - STATION DOES NOT REPORT WEATHER SUCH AS PRECIPITATION OR FOG.

+ - STATION NOT QUALITY CONTROLLED BY THE NATIONAL WEATHER SERVICE.
    USE DATA WITH CAUTION...ESPECIALLY DEWPOINT AND RELATIVE
    HUMIDITY OBSERVATIONS.

INZ001>003-010>013-019-020-291300-
NORTHWEST INDIANA

CITY           SKY/WX    TMP DP  RH WIND       PRES   REMARKS
GARY /AIRPORT/ MOSUNNY   70  68  94 S9        30.02R
KNOX *+        SUNNY     66  50  55 S8        30.02S

$$

LMZ046-743>745-291300-
SOUTHERN LAKE MICHIGAN

STATION/POSITION TIME  TEMP    WIND        PRES    WAVE
                       AIR SEA DIR/SP/G            HT
                 (UTC) (F)     (DEG/KT/KT) (MB)    (FT)
BURNS HARBOR     1100   66     200/ 11/ 16 1016.3R
MICHIGAN CITY    1100   66     180/ 11/ 13   N/A
5NW MICH CITY    1100   62 56  220/  8/ 10   N/A     1

$$

INZ004-005-014>016-021>024-291300-
NORTH CENTRAL INDIANA

CITY           SKY/WX    TMP DP  RH WIND       PRES   REMARKS
ELKHART        MOSUNNY   68  66  94 MISG      30.04
GOSHEN         MOSUNNY   70  64  81 S8        30.03S
6HR MIN TEMP:  67; 6HR MAX TEMP:  71;

SOUTH BEND     MOSUNNY   67  58  72 S9        30.03R
6HR MIN TEMP:  64; 6HR MAX TEMP:  71;


$$

INZ006>009-017-018-025>027-291300-
NORTHEAST INDIANA

CITY           SKY/WX    TMP DP  RH WIND       PRES   REMARKS
ANGOLA *+        N/A     70  63  78 SW7       30.05R
FORT WAYNE     PTSUNNY   71  66  84 S8        30.06R
6HR MIN TEMP:  68; 6HR MAX TEMP:  71;


$$

INZ028-029-035-036-043>045-051>053-291300-
WEST CENTRAL INDIANA

CITY           SKY/WX    TMP DP  RH WIND       PRES   REMARKS
CRAWFORDSVL +  SUNNY     69  69 100 S10       30.06S
6HR MIN TEMP:  64; 6HR MAX TEMP:  69;

GREENCASTLE +  SUNNY     66  66 100 CALM      30.07F FOG
LAFAYETTE      SUNNY     68  65  90 CALM      30.04R
6HR MIN TEMP:  61; 6HR MAX TEMP:  69;

TERRE HAUTE    SUNNY     69  66  90 S7        30.06S FOG
6HR MIN TEMP:  64; 6HR MAX TEMP:  69;


$$

INZ030>032-037>040-046>048-054>057-064-065-291300-
CENTRAL INDIANA

CITY           SKY/WX    TMP DP  RH WIND       PRES   REMARKS
FRANKFORT +      N/A     69  69 100 SW5       30.07S FOG
6HR MIN TEMP:  66; 6HR MAX TEMP:  69;

INDIANAPOLIS   PTSUNNY   70  66  87 SW10      30.06R
6HR MIN TEMP:  68; 6HR MAX TEMP:  70;

-EAGLE CREEK   MOSUNNY   71  66  84 S6        30.06S
6HR MIN TEMP:  68; 6HR MAX TEMP:  71;

KOKOMO *+      SUNNY     72  63  73 SW10      30.05S
6HR MIN TEMP:  66; 6HR MAX TEMP:  72;

SHELBYVILLE    SUNNY     72  65  78 S9        30.07F
6HR MIN TEMP:  66; 6HR MAX TEMP:  72;


$$

INZ033-034-041-042-049-050-058-059-291300-
EAST CENTRAL INDIANA

CITY           SKY/WX    TMP DP  RH WIND       PRES   REMARKS
MUNCIE         SUNNY     72  65  78 S7        30.07S
6HR MIN TEMP:  70; 6HR MAX TEMP:  72;


$$

INZ060-061-067>069-081>083-085>088-291300-
SOUTHWEST INDIANA

CITY           SKY/WX    TMP DP  RH WIND       PRES   REMARKS
EVANSVILLE     SUNNY     69  66  90 S3        30.09S
6HR MIN TEMP:  65; 6HR MAX TEMP:  71;

HUNTINGBURG *+ SUNNY     70  64  83 S5        30.09S
6HR MIN TEMP:  64; 6HR MAX TEMP:  70;


$$

INZ062-063-066-070>080-084-089>092-291300-
SOUTH CENTRAL AND SOUTHEAST INDIANA

CITY           SKY/WX    TMP DP  RH WIND       PRES   REMARKS
BLOOMINGTON    SUNNY     69  65  86 CALM      30.08S
6HR MIN TEMP:  65; 6HR MAX TEMP:  69;

MADISON *+     SUNNY     68  64  88 CALM      30.13S
SEYMOUR +      PTSUNNY   70  66  88 CALM      30.09S

$$





USA.gov is the U.S. government's official web portal to all federal, state and local government web resources and services.